N95EL EPRZ-UKLL

Flight info

Callsign N95EL
Flight time 0h 36m
Altitude 4000
Route 500408N0221346E 500113N0224055E/K0322F040 495651N0232401E
Aircraft C208/L-SDFGR/C

Departure

Time 2026-04-22 17:20
Airport Rzeszów-Jasionka Airport (EPRZ)

Arrival

Time 2026-04-22 17:56
Airport Lviv International Airport (UKLL)
Time Latitude Longitude Altitude Speed Heading
2026-04-22 17:11 50.11259 22.01162 702 ft 0 kts
2026-04-22 17:14 50.11273 22.01146 699 ft 5 kts 246°
2026-04-22 17:14 50.11211 22.01172 702 ft 13 kts 150°
2026-04-22 17:14 50.11170 22.01252 702 ft 10 kts 95°
2026-04-22 17:15 50.11167 22.01346 702 ft 16 kts 92°
2026-04-22 17:15 50.11163 22.01680 697 ft 20 kts 91°
2026-04-22 17:15 50.11161 22.01861 695 ft 18 kts 91°
2026-04-22 17:15 50.11157 22.02109 691 ft 28 kts 91°
2026-04-22 17:16 50.11154 22.02363 690 ft 17 kts 91°
2026-04-22 17:16 50.11152 22.02517 690 ft 12 kts 91°
2026-04-22 17:16 50.11151 22.02630 686 ft 9 kts 91°
2026-04-22 17:16 50.11147 22.02706 690 ft 6 kts 110°
2026-04-22 17:17 50.11102 22.02740 691 ft 9 kts 181°
2026-04-22 17:17 50.11074 22.02739 692 ft 0 kts 181°
2026-04-22 17:18 50.11039 22.02738 692 ft 10 kts 181°
2026-04-22 17:18 50.10987 22.02722 694 ft 8 kts 238°
2026-04-22 17:19 50.10990 22.01960 708 ft 76 kts 272°
2026-04-22 17:19 50.11024 21.99923 1058 ft 102 kts 273°
2026-04-22 17:20 50.10451 21.98187 1653 ft 119 kts 197°
2026-04-22 17:20 50.09122 21.99790 2153 ft 136 kts 104°
2026-04-22 17:21 50.08881 22.01207 2543 ft 129 kts 101°
2026-04-22 17:21 50.08313 22.03938 3073 ft 136 kts 103°
2026-04-22 17:22 50.07646 22.07027 3089 ft 162 kts 104°
2026-04-22 17:22 50.07219 22.08698 3085 ft 172 kts 122°
2026-04-22 17:22 50.04996 22.09843 3083 ft 178 kts 181°
2026-04-22 17:23 50.03754 22.09948 3083 ft 179 kts 181°
2026-04-22 17:23 50.01743 22.11920 3065 ft 181 kts 109°
2026-04-22 17:23 50.01324 22.13762 3069 ft 181 kts 105°
2026-04-22 17:24 50.00920 22.15581 3068 ft 180 kts 105°
2026-04-22 17:24 50.00589 22.17438 3063 ft 177 kts 89°
2026-04-22 17:24 50.00823 22.19250 3062 ft 169 kts 58°
2026-04-22 17:24 50.01448 22.20745 3067 ft 168 kts 62°
2026-04-22 17:25 50.01449 22.22597 3073 ft 178 kts 100°
2026-04-22 17:25 50.01277 22.24470 3072 ft 173 kts 85°
2026-04-22 17:25 50.01310 22.26332 3074 ft 172 kts 82°
2026-04-22 17:25 50.01354 22.28199 3074 ft 172 kts 83°
2026-04-22 17:26 50.01390 22.30063 3070 ft 173 kts 83°
2026-04-22 17:26 50.01422 22.31934 3072 ft 173 kts 83°
2026-04-22 17:26 50.01453 22.33813 3069 ft 174 kts 82°
2026-04-22 17:26 50.01485 22.35692 3071 ft 173 kts 82°
2026-04-22 17:27 50.01518 22.37563 3072 ft 173 kts 82°
2026-04-22 17:27 50.01550 22.39413 3073 ft 173 kts 83°
2026-04-22 17:27 50.01583 22.41296 3071 ft 175 kts 83°
2026-04-22 17:27 50.01612 22.43184 3079 ft 175 kts 83°
2026-04-22 17:28 50.01643 22.45078 3075 ft 175 kts 83°
2026-04-22 17:28 50.01673 22.46961 3073 ft 174 kts 82°
2026-04-22 17:28 50.01706 22.48839 3071 ft 174 kts 83°
2026-04-22 17:28 50.01733 22.50725 3068 ft 174 kts 83°
2026-04-22 17:29 50.01762 22.52606 3067 ft 174 kts 83°
2026-04-22 17:29 50.01792 22.54480 3066 ft 174 kts 83°
2026-04-22 17:29 50.01823 22.56352 3065 ft 174 kts 83°
2026-04-22 17:29 50.01851 22.58238 3064 ft 175 kts 83°
2026-04-22 17:30 50.01878 22.60128 3064 ft 175 kts 83°
2026-04-22 17:30 50.01906 22.62015 3063 ft 174 kts 82°
2026-04-22 17:30 50.01938 22.63887 3064 ft 173 kts 83°
2026-04-22 17:30 50.01963 22.65738 3063 ft 173 kts 83°
2026-04-22 17:31 50.01989 22.67615 3065 ft 174 kts 83°
2026-04-22 17:31 50.01886 22.69509 3066 ft 177 kts 95°
2026-04-22 17:31 50.01681 22.71406 3065 ft 178 kts 94°
2026-04-22 17:31 50.01492 22.73301 3063 ft 177 kts 94°
2026-04-22 17:32 50.01308 22.75193 3058 ft 177 kts 94°
2026-04-22 17:32 50.01121 22.77082 3059 ft 177 kts 94°
2026-04-22 17:32 50.00933 22.78985 3062 ft 178 kts 94°
2026-04-22 17:32 50.00745 22.80885 3066 ft 178 kts 94°
2026-04-22 17:33 50.00620 22.82142 3062 ft 178 kts 95°
2026-04-22 17:33 50.00369 22.84657 3061 ft 177 kts 95°
2026-04-22 17:33 50.00181 22.86551 3060 ft 177 kts 95°
2026-04-22 17:33 49.99993 22.88445 3057 ft 178 kts 95°
2026-04-22 17:34 49.99801 22.90348 3054 ft 178 kts 94°
2026-04-22 17:34 49.99609 22.92275 2972 ft 182 kts 94°
2026-04-22 17:34 49.99412 22.94225 2896 ft 183 kts 95°
2026-04-22 17:34 49.99216 22.96184 2821 ft 183 kts 94°
2026-04-22 17:35 49.99018 22.98149 2743 ft 185 kts 94°
2026-04-22 17:35 49.98818 23.00124 2663 ft 185 kts 94°
2026-04-22 17:35 49.98655 23.02110 2580 ft 185 kts 90°
2026-04-22 17:35 49.98565 23.04079 2559 ft 180 kts 89°
2026-04-22 17:36 49.98478 23.06007 2556 ft 178 kts 89°
2026-04-22 17:36 49.98387 23.07922 2553 ft 177 kts 89°
2026-04-22 17:36 49.98288 23.09812 2549 ft 178 kts 89°
2026-04-22 17:36 49.98199 23.11719 2545 ft 176 kts 89°
2026-04-22 17:37 49.98112 23.13609 2546 ft 174 kts 89°
2026-04-22 17:37 49.98025 23.15488 2544 ft 174 kts 89°
2026-04-22 17:37 49.97935 23.17371 2545 ft 175 kts 89°
2026-04-22 17:37 49.97839 23.19253 2546 ft 175 kts 89°
2026-04-22 17:38 49.97743 23.21139 2545 ft 175 kts 89°
2026-04-22 17:38 49.97646 23.23021 2546 ft 174 kts 89°
2026-04-22 17:38 49.97553 23.24897 2544 ft 174 kts 89°
2026-04-22 17:38 49.97462 23.26779 2545 ft 175 kts 89°
2026-04-22 17:39 49.97333 23.28674 2545 ft 177 kts 92°
2026-04-22 17:39 49.97183 23.30552 2548 ft 178 kts 92°
2026-04-22 17:39 49.96855 23.34376 2547 ft 176 kts 92°
2026-04-22 17:40 49.96695 23.36236 2556 ft 175 kts 92°
2026-04-22 17:40 49.96543 23.38140 2553 ft 176 kts 92°
2026-04-22 17:40 49.96399 23.40034 2552 ft 177 kts 92°
2026-04-22 17:40 49.96239 23.41930 2551 ft 178 kts 95°
2026-04-22 17:41 49.96037 23.43803 2550 ft 178 kts 95°
2026-04-22 17:41 49.95818 23.45714 2551 ft 177 kts 95°
2026-04-22 17:41 49.95611 23.47593 2550 ft 176 kts 95°
2026-04-22 17:41 49.95412 23.49448 2549 ft 176 kts 95°
2026-04-22 17:42 49.95213 23.51327 2551 ft 177 kts 95°
2026-04-22 17:42 49.95006 23.53214 2550 ft 178 kts 95°
2026-04-22 17:42 49.94850 23.54489 2544 ft 179 kts 101°
2026-04-22 17:42 49.94128 23.56818 2553 ft 183 kts 119°
2026-04-22 17:43 49.93480 23.58526 2551 ft 183 kts 117°
2026-04-22 17:43 49.92854 23.60250 2550 ft 183 kts 117°
2026-04-22 17:43 49.92235 23.61975 2550 ft 183 kts 117°
2026-04-22 17:43 49.91617 23.63709 2553 ft 184 kts 117°
2026-04-22 17:44 49.90995 23.65450 2544 ft 184 kts 117°
2026-04-22 17:44 49.90382 23.67179 2541 ft 182 kts 117°
2026-04-22 17:44 49.89770 23.68897 2545 ft 182 kts 117°
2026-04-22 17:44 49.89159 23.70593 2540 ft 182 kts 117°
2026-04-22 17:45 49.88549 23.72308 2540 ft 181 kts 117°
2026-04-22 17:45 49.87935 23.74012 2541 ft 181 kts 117°
2026-04-22 17:45 49.87320 23.75718 2542 ft 181 kts 117°
2026-04-22 17:45 49.86706 23.77427 2541 ft 181 kts 117°
2026-04-22 17:46 49.86090 23.79127 2550 ft 180 kts 117°
2026-04-22 17:46 49.85474 23.80807 2550 ft 178 kts 117°
2026-04-22 17:46 49.84834 23.82458 2552 ft 179 kts 123°
2026-04-22 17:46 49.84065 23.83980 2552 ft 180 kts 127°
2026-04-22 17:47 49.83283 23.85495 2543 ft 180 kts 127°
2026-04-22 17:47 49.82501 23.87022 2541 ft 181 kts 127°
2026-04-22 17:47 49.81731 23.88532 2541 ft 181 kts 127°
2026-04-22 17:47 49.80941 23.90059 2540 ft 181 kts 130°
2026-04-22 17:48 49.80330 23.90979 2544 ft 182 kts 140°
2026-04-22 17:48 49.79051 23.92668 2544 ft 182 kts 138°
2026-04-22 17:48 49.78116 23.93965 2540 ft 175 kts 138°
2026-04-22 17:48 49.77253 23.95176 2545 ft 159 kts 137°
2026-04-22 17:49 49.76462 23.96289 2540 ft 150 kts 137°
2026-04-22 17:49 49.75705 23.97353 2524 ft 145 kts 137°
2026-04-22 17:49 49.74970 23.98408 2533 ft 144 kts 137°
2026-04-22 17:49 49.74238 23.99472 2530 ft 145 kts 137°
2026-04-22 17:50 49.73753 24.00177 2532 ft 145 kts 137°
2026-04-22 17:50 49.73017 24.01248 2532 ft 145 kts 137°
2026-04-22 17:50 49.72277 24.02321 2531 ft 146 kts 137°
2026-04-22 17:50 49.71297 24.03739 2530 ft 145 kts 137°
2026-04-22 17:51 49.70824 24.04495 2529 ft 144 kts 123°
2026-04-22 17:51 49.70660 24.05917 2530 ft 131 kts 65°
2026-04-22 17:51 49.71092 24.07102 2535 ft 126 kts 48°
2026-04-22 17:51 49.71750 24.07779 2536 ft 107 kts 358°
2026-04-22 17:52 49.72432 24.07664 2549 ft 94 kts 342°
2026-04-22 17:52 49.72977 24.07239 2545 ft 88 kts 318°
2026-04-22 17:52 49.73449 24.06648 2542 ft 87 kts 319°
2026-04-22 17:52 49.73922 24.06027 2547 ft 92 kts 319°
2026-04-22 17:53 49.74410 24.05364 2551 ft 95 kts 319°
2026-04-22 17:53 49.74905 24.04673 2547 ft 97 kts 318°
2026-04-22 17:53 49.75403 24.03967 2549 ft 97 kts 318°
2026-04-22 17:53 49.75904 24.03248 2537 ft 99 kts 317°
2026-04-22 17:54 49.76395 24.02531 2438 ft 94 kts 320°
2026-04-22 17:54 49.76875 24.01915 2281 ft 80 kts 322°
2026-04-22 17:54 49.77269 24.01375 2094 ft 74 kts 318°
2026-04-22 17:54 49.77648 24.00830 1898 ft 74 kts 318°
2026-04-22 17:55 49.78019 24.00278 1719 ft 76 kts 317°
2026-04-22 17:55 49.78398 23.99694 1564 ft 78 kts 317°
2026-04-22 17:55 49.78800 23.99124 1471 ft 78 kts 317°
2026-04-22 17:55 49.79195 23.98542 1388 ft 79 kts 315°
2026-04-22 17:56 49.79584 23.97932 1245 ft 80 kts 315°
2026-04-22 17:56 49.79977 23.97339 1098 ft 78 kts 315°
2026-04-22 17:56 49.80340 23.96793 1061 ft 63 kts 315°
2026-04-22 17:56 49.80585 23.96422 1064 ft 42 kts 316°
2026-04-22 17:57 49.80784 23.96124 1063 ft 39 kts 315°
2026-04-22 17:57 49.80976 23.95832 1062 ft 38 kts 315°
2026-04-22 17:57 49.81138 23.95591 1064 ft 23 kts 317°
2026-04-22 17:57 49.81234 23.95576 1064 ft 12 kts 45°
2026-04-22 17:58 49.81295 23.95618 1064 ft 10 kts 335°
2026-04-22 17:58 49.81352 23.95534 1064 ft 12 kts 318°
2026-04-22 17:58 49.81410 23.95487 1064 ft 10 kts 338°
2026-04-22 17:58 49.81462 23.95449 1064 ft 6 kts 324°
2026-04-22 17:59 49.81508 23.95379 1064 ft 14 kts 314°
2026-04-22 17:59 49.81586 23.95262 1064 ft 16 kts 316°
2026-04-22 17:59 49.81654 23.95158 1064 ft 15 kts 315°
2026-04-22 17:59 49.81735 23.95035 1064 ft 12 kts 315°
2026-04-22 18:00 49.81771 23.94979 1064 ft 11 kts 317°
2026-04-22 18:00 49.81833 23.95073 1064 ft 12 kts 67°
2026-04-22 18:00 49.81825 23.95159 1064 ft 8 kts 157°
2026-04-22 18:00 49.81792 23.95179 1064 ft 0 kts 158°